When you browse on this site, cookies collect data to enhance your experience and personalize the content and advertising you see.
Visit our Privacy Policy to learn more. By continuing to use the site, you agree to this use of cookies and data.
  • In United Kingdom
  • List of Countries
  • For 7 days
  • Water Temperature
  • Satellite Maps
  • Weather Map
  • Weather Widgets
  • user-avatar
    Login

    Hourly Weather Amar

    Today, 24 March, Sunday

    Time Temperature Precipitation Wind Pressure Humidity
    00:00 +22°C° 0 mm 4 mps 755 mmHg 74%
    01:00 +22°C° 0 mm 3 mps 755 mmHg 75%
    02:00 +22°C° 0 mm 3 mps 754 mmHg 77%
    03:00 +21°C° 0 mm 3 mps 754 mmHg 80%
    04:00 +21°C° 0 mm 3 mps 754 mmHg 82%
    05:00 +21°C° 0 mm 3 mps 754 mmHg 84%
    06:00 +21°C° 0 mm 4 mps 754 mmHg 86%
    07:00 +21°C° 0 mm 4 mps 754 mmHg 83%
    08:00 +22°C° 0 mm 3 mps 755 mmHg 80%
    09:00 +24°C° 0 mm 3 mps 755 mmHg 75%
    10:00 +25°C° 0 mm 3 mps 755 mmHg 71%
    11:00 +26°C° 0 mm 3 mps 754 mmHg 67%
    12:00 +27°C° 0 mm 3 mps 754 mmHg 64%
    13:00 +27°C° 0 mm 4 mps 753 mmHg 61%
    14:00 +28°C° 0 mm 4 mps 753 mmHg 59%
    15:00 +29°C° 0 mm 4 mps 751 mmHg 54%
    16:00 +29°C° 0 mm 5 mps 751 mmHg 56%
    17:00 +28°C° 0 mm 6 mps 751 mmHg 57%
    18:00 +28°C° 0 mm 7 mps 751 mmHg 58%
    19:00 +27°C° 0 mm 7 mps 751 mmHg 61%
    20:00 +26°C° 0 mm 7 mps 751 mmHg 63%
    21:00 +24°C° 0 mm 8 mps 751 mmHg 65%
    22:00 +24°C° 0 mm 8 mps 751 mmHg 66%
    23:00 +24°C° 0 mm 8 mps 751 mmHg 68%

    Tomorrow, 25 March, Monday

    Time Temperature Precipitation Wind Pressure Humidity
    00:00 +24°C° 0 mm 8 mps 751 mmHg 70%
    01:00 +23°C° 0 mm 9 mps 751 mmHg 71%
    02:00 +23°C° 0 mm 9 mps 751 mmHg 72%
    03:00 +23°C° 0 mm 9 mps 751 mmHg 73%
    04:00 +23°C° 0.1 mm 10 mps 751 mmHg 74%
    05:00 +23°C° 0.1 mm 10 mps 751 mmHg 75%
    06:00 +23°C° 0.1 mm 11 mps 751 mmHg 76%
    07:00 +24°C° 0.5 mm 10 mps 751 mmHg 71%
    08:00 +26°C° 0.5 mm 10 mps 752 mmHg 66%
    09:00 +27°C° 0.5 mm 9 mps 752 mmHg 61%
    10:00 +28°C° 0.6 mm 9 mps 752 mmHg 54%
    11:00 +29°C° 0.6 mm 10 mps 751 mmHg 47%
    12:00 +32°C° 0.6 mm 10 mps 751 mmHg 41%
    13:00 +31°C° 0.1 mm 10 mps 751 mmHg 41%
    14:00 +31°C° 0.1 mm 10 mps 751 mmHg 41%
    15:00 +31°C° 0.1 mm 11 mps 750 mmHg 41%
    16:00 +29°C° 0 mm 12 mps 750 mmHg 49%
    17:00 +28°C° 0 mm 13 mps 750 mmHg 56%
    18:00 +26°C° 0 mm 14 mps 750 mmHg 64%
    19:00 +26°C° 0.3 mm 11 mps 751 mmHg 65%
    20:00 +26°C° 0.3 mm 9 mps 752 mmHg 66%
    21:00 +24°C° 0.3 mm 6 mps 753 mmHg 67%
    22:00 +24°C° 1.6 mm 6 mps 753 mmHg 72%
    23:00 +23°C° 1.6 mm 5 mps 754 mmHg 77%

    Day after tomorrow, 26 March, Tuesday

    Time Temperature Precipitation Wind Pressure Humidity
    00:00 +23°C° 1.6 mm 5 mps 754 mmHg 82%
    01:00 +23°C° 1 mm 6 mps 754 mmHg 79%
    02:00 +23°C° 1 mm 8 mps 753 mmHg 75%
    03:00 +23°C° 1 mm 9 mps 753 mmHg 71%
    04:00 +23°C° 0.1 mm 9 mps 753 mmHg 71%
    05:00 +23°C° 0.1 mm 9 mps 753 mmHg 70%
    06:00 +23°C° 0.1 mm 9 mps 752 mmHg 69%
    07:00 +23°C° 0.1 mm 9 mps 753 mmHg 68%
    08:00 +24°C° 0.1 mm 10 mps 754 mmHg 67%
    09:00 +26°C° 0.1 mm 10 mps 754 mmHg 66%
    10:00 +26°C° 0.1 mm 8 mps 754 mmHg 64%
    11:00 +27°C° 0.1 mm 6 mps 754 mmHg 61%
    12:00 +27°C° 0.1 mm 4 mps 755 mmHg 59%
    13:00 +27°C° 0.2 mm 3 mps 754 mmHg 57%
    14:00 +28°C° 0.2 mm 3 mps 754 mmHg 56%
    15:00 +28°C° 0.2 mm 2 mps 754 mmHg 55%
    16:00 +27°C° 0 mm 3 mps 754 mmHg 59%
    17:00 +27°C° 0 mm 3 mps 755 mmHg 62%
    18:00 +26°C° 0 mm 3 mps 755 mmHg 66%
    19:00 +26°C° 0 mm 3 mps 756 mmHg 66%
    20:00 +26°C° 0 mm 4 mps 757 mmHg 65%
    21:00 +25°C° 0 mm 4 mps 758 mmHg 65%
    22:00 +25°C° 0 mm 4 mps 758 mmHg 66%
    23:00 +25°C° 0 mm 3 mps 757 mmHg 67%

    27 March, Wednesday

    Time Temperature Precipitation Wind Pressure Humidity
    00:00 +25°C° 0 mm 2 mps 757 mmHg 68%
    01:00 +24°C° 0 mm 2 mps 757 mmHg 70%
    02:00 +24°C° 0 mm 1 mps 757 mmHg 72%
    03:00 +23°C° 0 mm 1 mps 757 mmHg 74%
    04:00 +23°C° 0 mm 1 mps 757 mmHg 75%
    05:00 +23°C° 0 mm 2 mps 758 mmHg 75%
    06:00 +22°C° 0 mm 3 mps 758 mmHg 75%
    07:00 +24°C° 0 mm 3 mps 759 mmHg 72%
    08:00 +24°C° 0 mm 3 mps 759 mmHg 69%
    09:00 +25°C° 0 mm 3 mps 760 mmHg 67%
    10:00 +26°C° 0 mm 3 mps 759 mmHg 65%
    11:00 +26°C° 0 mm 2 mps 759 mmHg 64%
    12:00 +26°C° 0 mm 2 mps 759 mmHg 62%
    13:00 +27°C° 0 mm 3 mps 758 mmHg 61%
    14:00 +27°C° 0 mm 4 mps 758 mmHg 60%
    15:00 +27°C° 0 mm 4 mps 757 mmHg 59%
    16:00 +26°C° 0 mm 5 mps 758 mmHg 62%
    17:00 +26°C° 0 mm 5 mps 758 mmHg 66%
    18:00 +25°C° 0 mm 5 mps 758 mmHg 70%
    19:00 +23°C° 0 mm 5 mps 758 mmHg 72%
    20:00 +23°C° 0 mm 4 mps 759 mmHg 73%
    21:00 +23°C° 0 mm 4 mps 759 mmHg 75%
    22:00 +23°C° 0 mm 5 mps 759 mmHg 76%
    23:00 +23°C° 0 mm 6 mps 758 mmHg 76%

    28 March, Thursday

    Time Temperature Precipitation Wind Pressure Humidity
    00:00 +22°C° 0 mm 7 mps 758 mmHg 77%
    01:00 +22°C° 0 mm 6 mps 757 mmHg 77%
    02:00 +22°C° 0 mm 6 mps 757 mmHg 77%
    03:00 +21°C° 0 mm 5 mps 756 mmHg 77%
    04:00 +21°C° 0 mm 4 mps 757 mmHg 74%
    05:00 +21°C° 0 mm 4 mps 757 mmHg 72%
    06:00 +21°C° 0 mm 3 mps 757 mmHg 69%
    07:00 +23°C° 0 mm 2 mps 758 mmHg 65%
    08:00 +24°C° 0 mm 2 mps 758 mmHg 60%
    09:00 +25°C° 0 mm 1 mps 758 mmHg 55%
    10:00 +25°C° 0 mm 1 mps 758 mmHg 53%
    11:00 +26°C° 0 mm 1 mps 758 mmHg 51%
    12:00 +27°C° 0 mm 1 mps 757 mmHg 49%
    13:00 +27°C° 0 mm 2 mps 757 mmHg 48%
    14:00 +27°C° 0 mm 3 mps 756 mmHg 48%
    15:00 +28°C° 0 mm 4 mps 756 mmHg 47%
    16:00 +27°C° 0 mm 5 mps 756 mmHg 51%
    17:00 +26°C° 0 mm 5 mps 757 mmHg 56%
    18:00 +24°C° 0 mm 6 mps 757 mmHg 60%
    19:00 +23°C° 0 mm 6 mps 757 mmHg 61%
    20:00 +23°C° 0 mm 7 mps 758 mmHg 63%
    21:00 +22°C° 0 mm 7 mps 758 mmHg 64%
    22:00 +22°C° 0 mm 7 mps 758 mmHg 62%
    23:00 +22°C° 0 mm 7 mps 758 mmHg 60%

    29 March, Friday

    Time Temperature Precipitation Wind Pressure Humidity
    00:00 +22°C° 0 mm 7 mps 758 mmHg 59%
    01:00 +22°C° 0 mm 6 mps 758 mmHg 59%
    02:00 +22°C° 0 mm 6 mps 758 mmHg 60%
    03:00 +22°C° 0 mm 5 mps 758 mmHg 61%
    04:00 +22°C° 0 mm 5 mps 758 mmHg 60%
    05:00 +21°C° 0 mm 5 mps 758 mmHg 60%
    06:00 +21°C° 0 mm 4 mps 759 mmHg 59%
    07:00 +22°C° 0 mm 4 mps 759 mmHg 53%
    08:00 +23°C° 0 mm 4 mps 760 mmHg 47%
    09:00 +25°C° 0 mm 4 mps 760 mmHg 41%
    10:00 +26°C° 0 mm 5 mps 760 mmHg 36%
    11:00 +26°C° 0 mm 5 mps 759 mmHg 31%
    12:00 +27°C° 0 mm 5 mps 759 mmHg 26%
    13:00 +27°C° 0 mm 5 mps 759 mmHg 27%
    14:00 +27°C° 0 mm 6 mps 758 mmHg 27%
    15:00 +27°C° 0 mm 6 mps 757 mmHg 27%
    16:00 +26°C° 0 mm 6 mps 758 mmHg 32%
    17:00 +24°C° 0 mm 6 mps 758 mmHg 37%
    18:00 +23°C° 0 mm 6 mps 758 mmHg 43%
    19:00 +23°C° 0 mm 6 mps 759 mmHg 45%
    20:00 +22°C° 0 mm 5 mps 759 mmHg 48%
    21:00 +22°C° 0 mm 5 mps 759 mmHg 50%
    22:00 +22°C° 0 mm 5 mps 759 mmHg 50%
    23:00 +22°C° 0 mm 4 mps 758 mmHg 50%
    Show more